This is the latest recevied weather packets stored in our database for station/object HK5VD-30. If no packets are shown the sender has not sent any weather packets the latest 10 day(s).
| Time | Temp. | Humidity | Pressure | Rain* | Wind** | Luminosity | Snow |
|---|---|---|---|---|---|---|---|
| 1777757538 | 27.78° C | 61% | 1011 hPa | 0 mm | - | - | - |
| 1777755737 | 30° C | 54% | 1010 hPa | 0 mm | - | - | - |
| 1777753936 | 30° C | 54% | 1010 hPa | 0 mm | - | - | - |
| 1777752135 | 28.89° C | 58% | 1010 hPa | 0 mm | - | - | - |
| 1777750334 | 28.89° C | 58% | 1010 hPa | 0 mm | - | - | - |
| 1777748533 | 27.78° C | 61% | 1011 hPa | 0 mm | - | - | - |
| 1777746732 | 27.22° C | 83% | 1011 hPa | 0 mm | - | - | - |
| 1777744931 | 26.67° C | 83% | 1011 hPa | 0 mm | - | - | - |
| 1777743130 | 26.11° C | 83% | 1011 hPa | 0 mm | - | - | - |
| 1777741328 | 25.56° C | 83% | 1012 hPa | 0 mm | - | - | - |
| 1777739527 | 25° C | 83% | 1012 hPa | 0 mm | - | - | - |
| 1777737726 | 24.44° C | 83% | 1013 hPa | 0 mm | - | - | - |
| 1777735925 | 23.89° C | 83% | 1014 hPa | 0 mm | - | - | - |
| 1777734124 | 23.33° C | 83% | 1014 hPa | 0 mm | - | - | - |
| 1777732323 | 22.78° C | 83% | 1014 hPa | 0 mm | - | - | - |
| 1777730522 | 25° C | 94% | 1014 hPa | 0 mm | - | - | - |
| 1777728721 | 24.44° C | 94% | 1014 hPa | 0 mm | - | - | - |
| 1777726920 | 23.89° C | 94% | 1014 hPa | 0 mm | - | - | - |
| 1777725119 | 23.33° C | 94% | 1012 hPa | 0 mm | - | - | - |
| 1777723318 | 22.78° C | 94% | 1013 hPa | 0 mm | - | - | - |
| 1777721518 | 22.22° C | 94% | 1013 hPa | 0 mm | - | - | - |
| 1777719717 | 21.67° C | 94% | 1013 hPa | 0 mm | - | - | - |
| 1777717916 | 21.11° C | 94% | 1012 hPa | 0 mm | - | - | - |
| 1777716115 | 20.56° C | 94% | 1012 hPa | 0 mm | - | - | - |
| 1777714314 | 20° C | 94% | 1011 hPa | 0 mm | - | - | - |
* Rain latest hour (hover to see other rain measurements)
** Current wind speed in m/s (hover to see current wind gust speed)